Location: Holmbach
(49.5093°N, 8.8411°E)
Time: 20:11:49
(UTC+00:00)

Cosmos 1943 Rocket - Pass Details

Date: 17 June 2025
Orbit: 810 x 843 km, 71.0° (Epoch: 16 July)

Event Time Altitude Azimuth Distance (km) Brightness Sun altitude
Exits shadow 23:20:03 12° 126° (SE) 2,250 4.1 -17.1°
Maximum altitude 23:22:27 16° 98° (E) 2,032 4.1 -17.1°
Drops below altitude 10° 23:25:35 10° 63° (ENE) 2,411 4.9 -17.1°
Sets 23:28:58 0° 42° (NE) 3,354 6.1 -17.1°
